Location: Basse Occidentale du Courleau
(48.3833°N, 4.8333°W)
Time: 09:37:29
(UTC+00:00)

Cosmos 1606 - Pass Details

Date: 05 July 2020
Orbit: 505 x 527 km, 82.5° (Epoch: 07 August)

Event Time Altitude Azimuth Distance (km) Brightness Sun altitude
Rises 22:45:06 0° 2° (N) 2,664 7.5 -15.6°
Reaches altitude 10° 22:47:37 10° 17° (NNE) 1,773 6.1 -15.7°
Maximum altitude 22:50:43 22° 70° (ENE) 1,179 4.5 -15.9°
Enters shadow 22:52:20 17° 104° (ESE) 1,367 4.5 -16.0°
